Theta_e
322 324 325 328 330 333 336 338 343 347 347 342 341 341 340 341 339 340 340 339 338 344 346 341 342 346 339 341 337 337 331 333 331 331 333 342 347 343 341 343 345 347 347
319 320 322 326 329 329 331 334 338 339 340 337 332 331 327 326 328 327 329 330 331 334 335 339 338 336 344 344 340 344 338 339 332 332 335 334 338 342 343 346 344 344 344
318 318 319 321 324 329 330 330 331 333 333 331 328 326 325 324 325 328 328 327 330 331 332 333 336 338 340 337 338 334 332 335 334 331 330 334 336 339 341 346 345 346 345
315 316 317 319 320 322 324 324 324 328 329 330 327 324 323 323 324 325 326 326 327 326 332 333 332 334 335 337 336 337 335 332 332 330 329 330 332 338 336 336 337 340 337
312 312 314 317 319 319 321 319 319 318 326 326 327 326 326 324 323 326 326 326 329 328 331 327 333 328 322 325 327 334 335 329 324 323 324 326 327 329 333 338 333 335 339
311 311 312 313 314 316 318 322 318 316 321 324 325 323 327 324 310 310 324 330 330 330 329 329 329 325 321 315 315 313 317 325 325 319 318 321 329 331 336 336 334 332 328
310 310 310 311 311 313 316 317 317 316 317 321 325 326 327 330 309 305 308 332 330 330 333 332 329 324 323 323 313 311 311 309 311 325 322 324 327 331 336 335 333 333 331
306 307 309 309 310 311 313 315 320 323 321 320 319 322 327 328 307 303 304 326 332 334 334 334 333 333 330 326 325 325 325 325 323 322 326 330 333 335 332 334 333 332 334
304 305 306 307 308 310 311 316 318 319 322 325 325 327 328 327 306 302 306 321 327 333 333 335 333 332 317 305 324 324 323 325 316 308 307 305 301 302 308 329 327 327 325
303 304 306 306 307 309 312 315 316 317 317 318 321 326 321 328 310 301 307 325 327 326 333 334 311 325 309 302 327 326 323 325 323 324 325 320 311 321 304 324 330 324 324
303 305 305 306 305 307 309 313 315 314 314 318 319 323 327 326 327 302 300 325 325 326 325 327 330 306 301 299 306 330 325 325 319 323 322 321 323 325 330 331 332 328 321
302 304 304 304 305 305 306 305 309 312 314 315 316 318 320 326 311 303 300 302 316 325 325 326 328 303 303 299 303 306 299 304 319 318 317 318 319 320 329 330 331 327 327
301 301 301 303 304 304 303 304 304 307 307 308 310 312 315 317 323 304 299 299 302 319 325 319 307 301 302 302 300 302 296 315 316 316 317 319 321 322 331 328 329 327 327
298 299 300 299 299 303 303 302 302 302 304 306 308 310 312 315 318 323 315 311 302 309 312 320 316 312 310 316 312 305 316 319 317 317 319 320 322 327 328 326 321 323 324
296 297 296 296 296 298 300 302 301 303 304 304 307 309 310 312 314 310 313 320 320 316 316 321 323 321 320 320 321 321 320 319 317 319 319 320 320 326 323 324 322 321 320
293 294 295 296 295 296 297 298 297 296 296 295 296 300 310 302 296 297 296 297 301 300 313 317 318 321 320 320 319 319 321 316 320 319 321 321 322 324 317 320 321 319 322
292 292 293 294 295 294 294 293 294 297 295 295 293 294 295 297 293 294 295 293 295 297 316 316 318 319 321 321 320 318 318 320 323 321 322 323 321 322 315 319 321 322 322
292 292 293 293 294 294 294 294 294 293 293 295 295 295 294 293 294 292 293 295 306 301 312 316 316 318 319 319 318 318 319 320 319 322 323 323 323 322 320 318 321 322 324
290 291 292 291 293 294 294 294 294 295 295 296 299 296 294 293 292 291 292 301 305 308 309 313 317 316 316 317 318 317 319 319 319 323 323 323 323 322 320 320 324 308 314
289 289 289 289 290 291 292 292 293 293 292 295 296 298 299 294 296 298 298 300 303 306 309 312 314 314 314 315 317 317 318 318 322 323 323 324 322 323 321 323 326 327 326
289 290 289 291 291 292 292 292 293 293 293 295 295 299 295 298 297 299 300 302 304 307 309 310 312 313 316 318 318 318 319 320 323 324 324 324 322 321 323 325 327 328 329
293 293 294 295 298 300 301 301 296 295 295 295 296 297 289 299 300 302 304 306 308 311 313 312 314 315 316 316 319 320 318 321 324 325 325 324 323 322 327 326 327 326 326
294 296 298 304 307 299 304 301 298 298 298 298 300 298 298 301 302 304 306 308 309 309 311 312 315 314 316 320 320 320 317 323 326 327 325 323 322 324 324 324 324 323 322
308 308 309 308 307 305 304 303 302 297 301 300 299 299 300 303 305 307 308 309 311 312 312 313 314 313 318 319 320 322 323 327 329 328 327 324 325 319 324 320 319 320 319
305 306 309 308 308 307 306 304 304 303 302 301 300 301 304 305 306 309 309 309 310 312 313 315 315 317 319 319 320 322 314 296 323 313 330 329 326 326 323 320 318 315 310
302 303 305 306 304 306 307 308 307 307 305 306 307 307 308 309 308 308 310 313 313 313 315 318 319 319 316 318 322 310 292 294 307 300 327 328 325 322 321 319 314 311 309
Wind_Speed
12 11 12 11 10 12 12 14 13 12 14 11 6 15 24 17 5 5 5 7 8 9 10 9 12 13 11 12 8 3 5 9 13 8 8 6 5 7 9 8 8 8 8
10 13 11 13 13 8 8 11 12 14 14 10 11 13 15 13 10 10 9 7 6 13 10 12 13 10 13 12 12 7 7 10 7 10 8 8 10 10 10 9 7 7 9
10 11 12 10 11 13 9 10 8 7 13 14 14 13 13 14 14 13 9 7 9 10 11 10 11 10 7 11 9 9 8 7 9 11 10 8 9 8 7 7 8 7 8
14 12 13 11 12 10 12 6 11 10 9 10 11 12 11 11 12 11 11 10 11 11 10 11 11 11 9 8 9 9 8 8 9 10 9 9 10 8 5 9 7 6 8
15 16 14 14 14 14 9 7 3 11 17 12 13 11 10 9 9 10 7 10 10 10 11 10 8 8 6 0 6 6 6 6 8 10 10 9 10 6 4 7 8 7 6
18 16 17 16 16 15 15 7 4 7 20 15 12 10 12 11 10 15 12 10 12 12 10 10 9 10 6 4 5 4 5 6 8 9 10 11 12 9 7 8 6 5 6
19 18 17 18 18 17 15 14 13 14 18 18 15 11 11 11 8 10 11 11 11 11 12 10 10 11 12 13 12 11 10 11 13 8 9 10 12 12 10 10 8 7 7
19 22 23 19 20 18 17 16 13 12 16 19 21 15 14 12 14 12 14 11 11 14 13 13 13 11 12 11 10 12 12 8 12 9 10 10 11 10 9 10 10 6 7
21 22 23 24 24 21 17 15 13 13 13 12 15 18 17 15 12 13 13 10 16 14 14 15 14 13 11 12 12 11 9 8 7 12 12 11 10 10 9 9 8 7 5
21 20 19 20 21 21 17 14 13 14 15 14 16 15 16 15 13 13 14 12 17 13 14 14 14 15 14 14 12 11 11 9 9 8 6 8 11 11 9 9 6 7 5
19 18 16 18 17 17 17 16 15 14 16 15 17 15 15 14 14 15 16 15 14 13 13 13 12 19 13 14 15 11 10 7 6 6 9 8 8 6 6 6 8 7 4
17 16 16 16 13 14 18 13 15 15 16 16 16 14 14 15 16 16 19 20 14 13 13 14 13 20 22 19 14 13 3 3 7 9 10 9 8 8 6 6 8 6 6
16 16 15 16 17 15 16 16 14 13 12 15 15 15 14 14 15 17 20 20 20 13 13 12 11 18 22 17 17 14 8 8 9 10 10 9 8 7 4 6 8 10 10
17 16 15 14 14 14 12 11 12 12 12 13 16 14 13 14 14 13 14 13 16 15 14 13 8 6 11 12 12 8 9 10 10 10 10 9 7 6 8 6 4 4 5
16 14 15 13 14 14 15 13 13 15 14 13 14 15 14 14 13 13 12 15 14 15 13 12 11 11 11 11 11 11 11 11 11 11 9 8 9 7 6 4 4 5 7
17 14 13 12 12 12 12 12 18 19 14 17 16 13 12 14 4 5 9 6 18 17 14 13 13 12 12 12 12 12 11 12 10 10 6 8 8 6 4 4 5 8 8
16 15 12 14 12 12 12 12 13 12 17 23 16 19 21 19 8 6 2 3 7 12 15 14 13 13 12 13 12 12 12 10 10 7 7 7 6 5 4 7 7 6 7
16 20 14 13 12 11 12 13 12 13 14 14 23 23 19 18 18 7 2 6 7 5 10 13 13 12 12 12 12 12 11 10 8 7 6 6 7 7 6 7 8 9 9
14 11 11 11 11 13 12 13 13 12 13 12 10 17 23 17 15 7 10 8 10 12 13 14 12 12 11 12 11 12 11 9 6 7 6 6 7 7 8 9 10 9 8
13 20 21 12 10 11 11 12 11 12 13 12 9 9 12 14 14 12 10 8 9 10 10 14 13 12 12 12 12 11 11 6 6 7 6 6 8 8 9 10 11 8 6
10 10 11 10 11 11 11 12 12 11 11 9 12 9 15 12 13 13 12 13 12 12 13 14 14 15 14 13 12 11 9 6 7 6 6 7 7 7 8 10 8 8 8
9 8 8 8 9 8 6 6 11 10 10 11 10 9 15 11 12 13 13 14 13 13 12 8 11 14 14 13 11 10 9 6 7 7 7 7 7 8 10 9 8 8 11
8 7 7 4 4 3 5 6 8 8 8 9 9 10 11 9 12 12 12 13 11 10 9 9 12 8 9 10 8 7 8 7 7 7 8 8 7 9 8 7 8 7 7
8 10 4 7 6 5 6 7 7 8 9 9 9 10 9 8 13 14 11 9 9 8 5 5 5 12 10 8 7 5 6 6 8 10 11 7 9 7 8 7 5 12 11
8 8 10 8 6 7 6 6 7 8 8 8 9 9 9 10 10 14 11 9 10 11 10 10 8 14 9 8 10 14 11 8 13 10 10 14 13 13 11 11 11 12 12
9 9 9 9 8 8 8 8 8 8 7 8 8 9 11 13 11 12 12 13 10 9 10 9 10 12 4 5 14 13 8 9 8 9 10 10 12 10 9 14 17 12 14
Wind_Direction
325 311 303 288 276 288 274 266 262 258 255 263 164 131 211 182 167 154 297 289 260 210 232 238 233 242 255 268 251 244 271 284 244 255 280 299 277 271 279 270 247 259 264
301 313 316 313 300 259 265 268 262 250 248 226 225 199 203 199 199 208 209 190 220 257 235 228 245 218 221 244 273 279 194 259 296 286 287 286 276 275 264 254 259 263 277
301 305 303 309 310 308 307 259 272 279 226 224 215 214 203 201 199 203 207 210 218 242 244 251 246 247 247 252 260 268 263 253 245 249 259 277 276 272 277 267 261 269 273
301 296 291 290 299 287 303 332 341 284 274 249 208 203 197 189 185 196 198 206 220 228 231 236 240 227 235 247 257 278 277 277 284 291 294 284 273 260 273 279 278 264 271
291 291 289 287 278 285 255 259 288 308 295 226 226 210 214 204 193 200 187 194 204 222 217 220 220 241 70 352 258 251 303 295 279 281 281 275 265 272 263 273 262 279 272
285 283 288 282 280 274 280 236 213 254 276 301 275 241 233 222 207 178 187 191 193 200 207 198 230 179 197 200 236 275 293 282 277 286 291 298 311 311 313 272 272 267 283
291 277 272 279 271 268 259 265 195 200 248 264 262 254 246 223 255 220 208 203 198 203 193 197 208 199 195 208 216 215 223 224 229 254 274 279 290 294 301 295 264 256 268
294 288 286 277 274 264 262 250 255 234 208 226 240 240 242 229 206 196 196 231 221 206 202 203 206 224 184 205 221 206 217 225 217 224 239 267 274 291 306 298 278 286 287
274 273 273 269 271 263 253 255 245 249 251 245 232 234 231 231 202 183 184 206 236 228 211 206 204 214 219 193 220 240 251 254 240 211 230 262 286 278 263 273 257 270 280
274 273 268 274 277 273 270 263 250 250 251 247 241 237 234 235 218 185 183 212 222 226 229 220 207 213 198 185 214 224 242 247 258 277 264 269 233 247 228 240 256 268 269
275 266 270 266 264 270 283 268 250 246 251 247 244 244 238 229 222 200 194 222 228 218 224 222 219 201 192 190 206 220 228 246 256 261 270 276 288 271 240 237 255 256 261
270 266 266 259 260 265 258 263 279 244 242 241 246 245 234 233 215 196 200 211 222 235 231 217 227 188 198 187 192 231 181 227 260 266 273 280 282 288 232 248 250 247 240
265 262 259 260 259 249 253 252 251 250 247 249 233 229 236 237 218 201 195 200 215 229 242 239 242 186 190 191 198 210 169 235 248 257 265 271 280 293 263 262 263 249 255
269 263 264 265 267 256 245 238 236 238 242 239 241 233 231 228 231 215 203 205 212 213 241 248 252 234 201 199 175 187 227 233 236 251 264 273 278 265 239 241 258 272 306
275 263 249 245 249 249 245 241 233 235 233 231 235 241 240 226 229 227 226 196 204 210 210 231 218 207 192 197 210 211 204 215 223 232 244 278 279 261 256 255 249 284 262
262 261 253 246 243 244 242 244 239 245 238 234 247 253 253 260 309 27 359 317 191 176 202 216 219 209 213 213 215 218 221 225 239 245 235 258 261 234 279 270 276 266 240
260 259 259 254 245 240 237 242 242 235 239 244 244 246 251 254 331 23 310 311 236 174 200 209 218 216 210 207 218 227 239 240 238 192 209 237 239 218 213 255 240 226 241
270 264 254 247 244 238 229 229 229 225 227 228 231 233 237 236 244 215 57 351 233 223 220 213 213 228 215 222 228 226 237 244 221 170 187 215 215 211 222 246 241 232 233
268 264 263 259 250 244 238 234 232 228 227 225 211 213 221 229 229 196 152 245 257 222 213 229 225 232 223 233 230 231 235 234 183 154 180 202 209 214 218 229 236 226 203
269 260 251 257 251 244 235 232 228 219 216 227 211 219 197 200 216 221 222 224 238 243 230 218 231 232 238 231 229 225 230 180 157 170 190 204 202 212 227 229 224 201 176
265 264 249 248 246 240 233 224 215 207 209 196 209 212 181 186 193 194 197 205 214 226 224 236 211 221 220 227 220 221 211 164 159 177 196 199 195 209 229 234 194 180 142
267 261 261 255 248 238 243 236 192 183 184 189 192 187 154 178 172 187 200 199 199 210 218 230 243 221 208 216 211 204 195 169 176 198 200 188 202 225 219 190 170 160 141
262 240 252 267 40 34 41 102 123 155 169 179 178 152 164 173 171 179 189 180 193 201 206 236 234 249 265 205 185 194 196 199 195 196 192 173 208 218 155 156 148 143 125
12 9 130 59 56 70 67 74 87 110 117 119 130 146 164 182 170 177 179 185 180 194 173 225 220 243 239 182 173 173 215 203 189 189 168 165 216 137 134 136 142 105 111
20 25 27 45 51 72 86 93 100 112 121 129 135 151 167 158 171 169 171 185 195 184 198 207 214 235 230 201 206 209 198 193 179 166 173 184 152 127 118 109 114 112 109
21 30 29 48 45 44 62 81 91 104 119 137 141 150 154 158 158 161 182 188 184 171 189 204 205 218 237 243 234 208 153 167 173 177 181 139 122 118 116 119 122 124 125